When you browse on this site, cookies collect data to enhance your experience and personalize the content and advertising you see.
Visit our Privacy Policy to learn more. By continuing to use the site, you agree to this use of cookies and data.
  • In Slovakia
  • List of Countries
  • For 7 days
  • Water Temperature
  • Satellite Maps
  • Weather Map
  • Weather Widgets
  • user-avatar
    Login

    Hourly Weather Mazari Sharif

    Today, 24 March, Sunday

    Time Temperature Precipitation Wind Pressure Humidity
    00:00 +7°C° 0 mm 2 mps 657 mmHg 78%
    01:00 +7°C° 0 mm 2 mps 657 mmHg 79%
    02:00 +7°C° 0 mm 2 mps 656 mmHg 79%
    03:00 +6°C° 0 mm 2 mps 656 mmHg 79%
    04:00 +6°C° 0 mm 2 mps 655 mmHg 81%
    05:00 +7°C° 0 mm 2 mps 656 mmHg 76%
    06:00 +8°C° 0 mm 2 mps 656 mmHg 72%
    07:00 +8°C° 0 mm 2 mps 656 mmHg 67%
    08:00 +11°C° 0 mm 1 mps 657 mmHg 57%
    09:00 +12°C° 0 mm 1 mps 657 mmHg 48%
    10:00 +14°C° 0 mm 1 mps 657 mmHg 37%
    11:00 +15°C° 0 mm 1 mps 657 mmHg 34%
    12:00 +16°C° 0 mm 2 mps 657 mmHg 31%
    13:00 +17°C° 0 mm 2 mps 657 mmHg 28%
    14:00 +17°C° 0.1 mm 2 mps 656 mmHg 29%
    15:00 +17°C° 0.1 mm 2 mps 656 mmHg 30%
    16:00 +17°C° 0 mm 3 mps 656 mmHg 32%
    17:00 +16°C° 0.3 mm 2 mps 656 mmHg 38%
    18:00 +14°C° 0.3 mm 2 mps 655 mmHg 45%
    19:00 +13°C° 0.3 mm 2 mps 655 mmHg 51%
    20:00 +13°C° 0 mm 2 mps 655 mmHg 52%
    21:00 +13°C° 0 mm 2 mps 655 mmHg 52%
    22:00 +12°C° 0 mm 2 mps 656 mmHg 53%
    23:00 +12°C° 0 mm 2 mps 655 mmHg 52%

    Tomorrow, 25 March, Monday

    Time Temperature Precipitation Wind Pressure Humidity
    00:00 +10°C° 0 mm 2 mps 655 mmHg 52%
    01:00 +10°C° 0 mm 2 mps 655 mmHg 51%
    02:00 +10°C° 0 mm 2 mps 655 mmHg 50%
    03:00 +9°C° 0 mm 2 mps 655 mmHg 48%
    04:00 +9°C° 0 mm 2 mps 655 mmHg 46%
    05:00 +10°C° 0 mm 2 mps 656 mmHg 43%
    06:00 +12°C° 0 mm 2 mps 656 mmHg 39%
    07:00 +12°C° 0 mm 2 mps 657 mmHg 36%
    08:00 +14°C° 0 mm 2 mps 657 mmHg 30%
    09:00 +16°C° 0 mm 2 mps 657 mmHg 25%
    10:00 +19°C° 0 mm 1 mps 658 mmHg 19%
    11:00 +19°C° 0 mm 2 mps 658 mmHg 19%
    12:00 +19°C° 0 mm 2 mps 658 mmHg 18%
    13:00 +20°C° 0 mm 2 mps 658 mmHg 17%
    14:00 +20°C° 0 mm 3 mps 657 mmHg 18%
    15:00 +20°C° 0 mm 3 mps 657 mmHg 18%
    16:00 +20°C° 0 mm 3 mps 657 mmHg 19%
    17:00 +19°C° 0 mm 3 mps 656 mmHg 21%
    18:00 +18°C° 0 mm 3 mps 656 mmHg 24%
    19:00 +16°C° 0 mm 3 mps 656 mmHg 27%
    20:00 +16°C° 0 mm 3 mps 656 mmHg 28%
    21:00 +14°C° 0 mm 3 mps 656 mmHg 28%
    22:00 +15°C° 0 mm 2 mps 656 mmHg 28%
    23:00 +14°C° 0 mm 2 mps 656 mmHg 28%

    Day after tomorrow, 26 March, Tuesday

    Time Temperature Precipitation Wind Pressure Humidity
    00:00 +14°C° 0 mm 2 mps 656 mmHg 28%
    01:00 +14°C° 0 mm 2 mps 655 mmHg 28%
    02:00 +13°C° 0 mm 2 mps 655 mmHg 27%
    03:00 +13°C° 0 mm 2 mps 655 mmHg 26%
    04:00 +13°C° 0 mm 2 mps 655 mmHg 26%
    05:00 +13°C° 0 mm 3 mps 656 mmHg 24%
    06:00 +14°C° 0 mm 3 mps 656 mmHg 23%
    07:00 +14°C° 0 mm 3 mps 656 mmHg 22%
    08:00 +17°C° 0 mm 3 mps 656 mmHg 19%
    09:00 +20°C° 0 mm 2 mps 657 mmHg 16%
    10:00 +23°C° 0 mm 2 mps 657 mmHg 13%
    11:00 +23°C° 0 mm 2 mps 657 mmHg 14%
    12:00 +24°C° 0 mm 2 mps 657 mmHg 15%
    13:00 +25°C° 0 mm 2 mps 657 mmHg 16%
    14:00 +24°C° 0 mm 2 mps 656 mmHg 17%
    15:00 +24°C° 0 mm 3 mps 656 mmHg 19%
    16:00 +24°C° 0 mm 3 mps 656 mmHg 20%
    17:00 +21°C° 0 mm 2 mps 656 mmHg 23%
    18:00 +20°C° 0 mm 2 mps 655 mmHg 26%
    19:00 +20°C° 0 mm 1 mps 655 mmHg 30%
    20:00 +20°C° 0.1 mm 1 mps 655 mmHg 31%
    21:00 +19°C° 0.1 mm 1 mps 655 mmHg 32%
    22:00 +19°C° 0.1 mm 1 mps 656 mmHg 34%
    23:00 +18°C° 0.1 mm 1 mps 655 mmHg 36%

    27 March, Wednesday

    Time Temperature Precipitation Wind Pressure Humidity
    00:00 +18°C° 0.1 mm 1 mps 655 mmHg 37%
    01:00 +16°C° 0.1 mm 1 mps 655 mmHg 39%
    02:00 +16°C° 0.6 mm 2 mps 655 mmHg 42%
    03:00 +16°C° 0.6 mm 2 mps 655 mmHg 44%
    04:00 +16°C° 0.6 mm 3 mps 655 mmHg 46%
    05:00 +16°C° 0.5 mm 3 mps 655 mmHg 48%
    06:00 +17°C° 0.5 mm 3 mps 655 mmHg 49%
    07:00 +17°C° 0.5 mm 3 mps 655 mmHg 51%
    08:00 +18°C° 0.4 mm 2 mps 655 mmHg 48%
    09:00 +19°C° 0.4 mm 2 mps 655 mmHg 45%
    10:00 +21°C° 0.4 mm 1 mps 656 mmHg 42%
    11:00 +19°C° 0.5 mm 2 mps 655 mmHg 46%
    12:00 +19°C° 0.5 mm 2 mps 655 mmHg 49%
    13:00 +18°C° 0.5 mm 3 mps 655 mmHg 53%
    14:00 +19°C° 0.2 mm 3 mps 655 mmHg 51%
    15:00 +19°C° 0.2 mm 3 mps 655 mmHg 50%
    16:00 +20°C° 0.2 mm 3 mps 655 mmHg 48%
    17:00 +19°C° 0.3 mm 3 mps 656 mmHg 50%
    18:00 +18°C° 0.3 mm 3 mps 656 mmHg 53%
    19:00 +17°C° 0.3 mm 3 mps 656 mmHg 55%
    20:00 +16°C° 0.5 mm 2 mps 656 mmHg 63%
    21:00 +15°C° 0.5 mm 2 mps 656 mmHg 70%
    22:00 +13°C° 0.5 mm 1 mps 655 mmHg 77%
    23:00 +13°C° 0.6 mm 1 mps 655 mmHg 78%

    28 March, Thursday

    Time Temperature Precipitation Wind Pressure Humidity
    00:00 +13°C° 0.6 mm 1 mps 655 mmHg 79%
    01:00 +13°C° 0.6 mm 2 mps 655 mmHg 80%
    02:00 +13°C° 1.5 mm 2 mps 655 mmHg 81%
    03:00 +12°C° 1.5 mm 3 mps 656 mmHg 82%
    04:00 +12°C° 1.5 mm 3 mps 656 mmHg 83%
    05:00 +13°C° 0.2 mm 3 mps 656 mmHg 78%
    06:00 +15°C° 0.2 mm 2 mps 657 mmHg 73%
    07:00 +15°C° 0.2 mm 2 mps 657 mmHg 68%
    08:00 +17°C° 0 mm 2 mps 658 mmHg 58%
    09:00 +19°C° 0 mm 2 mps 658 mmHg 48%
    10:00 +20°C° 0 mm 2 mps 658 mmHg 39%
    11:00 +21°C° 0.1 mm 2 mps 658 mmHg 37%
    12:00 +23°C° 0.1 mm 2 mps 657 mmHg 36%
    13:00 +22°C° 0.1 mm 3 mps 657 mmHg 34%
    14:00 +22°C° 0.6 mm 3 mps 656 mmHg 37%
    15:00 +22°C° 0.6 mm 4 mps 656 mmHg 39%
    16:00 +22°C° 0.6 mm 4 mps 655 mmHg 42%
    17:00 +21°C° 0.1 mm 3 mps 655 mmHg 47%
    18:00 +19°C° 0.1 mm 3 mps 655 mmHg 53%
    19:00 +18°C° 0.1 mm 2 mps 655 mmHg 58%
    20:00 +18°C° 0.1 mm 2 mps 655 mmHg 60%
    21:00 +18°C° 0.1 mm 2 mps 655 mmHg 61%
    22:00 +17°C° 0.1 mm 2 mps 655 mmHg 62%
    23:00 +16°C° 1.3 mm 2 mps 654 mmHg 69%

    29 March, Friday

    Time Temperature Precipitation Wind Pressure Humidity
    00:00 +15°C° 1.3 mm 2 mps 654 mmHg 76%
    01:00 +14°C° 1.3 mm 2 mps 653 mmHg 83%
    02:00 +14°C° 0.3 mm 2 mps 653 mmHg 83%
    03:00 +14°C° 0.3 mm 1 mps 653 mmHg 83%
    04:00 +13°C° 0.3 mm 1 mps 653 mmHg 83%
    05:00 +14°C° 0.4 mm 1 mps 653 mmHg 79%
    06:00 +14°C° 0.4 mm 2 mps 653 mmHg 75%
    07:00 +15°C° 0.4 mm 2 mps 653 mmHg 72%
    08:00 +16°C° 0.1 mm 2 mps 653 mmHg 66%
    09:00 +17°C° 0.1 mm 2 mps 653 mmHg 60%
    10:00 +19°C° 0.1 mm 1 mps 653 mmHg 54%
    11:00 +18°C° 0.7 mm 3 mps 652 mmHg 57%
    12:00 +17°C° 0.7 mm 4 mps 652 mmHg 59%
    13:00 +16°C° 0.7 mm 6 mps 652 mmHg 61%
    14:00 +14°C° 0.7 mm 5 mps 652 mmHg 68%
    15:00 +12°C° 0.7 mm 5 mps 651 mmHg 76%
    16:00 +10°C° 0.7 mm 4 mps 651 mmHg 83%
    17:00 +8°C° 0.6 mm 5 mps 652 mmHg 84%
    18:00 +8°C° 0.6 mm 6 mps 653 mmHg 85%
    19:00 +7°C° 0.6 mm 6 mps 653 mmHg 85%
    20:00 +7°C° 0.2 mm 6 mps 654 mmHg 84%
    21:00 +7°C° 0.2 mm 5 mps 655 mmHg 82%
    22:00 +7°C° 0.2 mm 4 mps 655 mmHg 81%
    23:00 +7°C° 0.1 mm 3 mps 655 mmHg 80%
    Show more